User: anonymous   Login
Location: Chiroubles
(46.1812°N, 4.6660°E)
Time: 18:38:25
(UTC+00:00)
Language:

Cosmos 44 Rocket - Orbit

View from above orbital plane
View from above orbital plane
View from above satellite
View from above satellite

Ground track
Ground track

The orbit data is extracted from the following two-line orbital elements,

1   877U 64053B   20303.68504023 -.00000057  00000-0  13501-4 0  9993
2   877  65.0771 296.7139 0072043 333.9543  25.7937 14.59403269981074
Epoch (UTC): 29 October 2020 16:26:27
Eccentricity: 0.0072043
inclination: 65.0771°
perigee height: 644 km
apogee height: 746 km
right ascension of ascending node: 296.7139°
argument of perigee: 333.9543°
revolutions per day: 14.59403269
mean anomaly at epoch: 25.7937°
orbit number at epoch: 98107

The dashed part of the orbit path shows where the satellite is in the earth's shadow,  

DLR